Location: Newark
(44.2886°N, 4.8431°E)
Time: 15:50:36
(UTC+00:00)

ZACube-1 - Pass Details

Date: 02 December 2020
Orbit: 584 x 665 km, 97.6° (Epoch: 14 January)

Event Time Altitude Azimuth Distance (km) Brightness Sun altitude
Rises 05:53:05 0° 1° (N) 2,829 ? -11.3°
Reaches altitude 10° 05:55:29 10° 348° (NNW) 1,929 ? -10.9°
Maximum altitude 05:58:58 26° 292° (WNW) 1,187 ? -10.3°
Drops below altitude 10° 06:02:28 10° 236° (SW) 1,946 ? -9.7°
Sets 06:04:55 0° 223° (SW) 2,858 ? -9.3°
